Regional Weather Roundup
Issued by NWS

Home | Current Version | Previous Version | Graphics & Text | Print | Product List | Glossary Off
Versions: 1 2 3 4 5 6 7 8 9 10 11 12 13 14 15 16 17 18 19 20 21 22 23 24 25 26 27 28 29 30 31 32 33 34 35 36 37 38 39 40 41 42 43 44 45 46 47 48 49 50

000
ASUS43 KMKX 210811
RWRWI

WISCONSIN REGIONAL WEATHER ROUNDUP
NATIONAL WEATHER SERVICE MILWAUKEE/SULLIVAN WI
200 AM CST SUN DEC 21 2014

NOTE: "FAIR" INDICATES FEW OR NO CLOUDS BELOW 12,000 FEET WITH NO
SIGNIFICANT WEATHER AND/OR OBSTRUCTIONS TO VISIBILITY.

WIZ001-002-006>008-014>016-023>028-210900-
NORTHWEST WISCONSIN

CITY           SKY/WX    TMP DP  RH WIND       PRES   REMARKS
SUPERIOR ARPT  CLOUDY    32  28  85 SW8       30.05S WCI  25
ASHLAND        CLOUDY    31  26  82 S13       30.08S WCI  21
HAYWARD        CLOUDY    30  25  81 S12       30.06S WCI  20
SIREN          CLOUDY    31  28  86 S8        30.06S WCI  24
CUMBERLAND     CLOUDY    30  28  93 S9        30.06S WCI  22
RICE LAKE      CLOUDY    31  28  91 S12       30.09S FOG     WCI  21
CHETEK         CLOUDY    30  28  93 S6        30.08F FOG     WCI  24
LADYSMITH      CLOUDY    30  29  95 S8        30.11R FOG     WCI  23
EAU CLAIRE     CLOUDY    31  27  85 SE8       30.09F WCI  23
MENOMONIE      CLOUDY    31  30  96 E6        30.09S FOG     WCI  25
NEW RICHMOND   CLOUDY    31  29  92 SE6       30.05F WCI  25
OSCEOLA        CLOUDY    32  28  86 SE6       30.08F WCI  26
$$

WIZ003>005-009-010-017-018-210900-
NORTH CENTRAL WISCONSIN

CITY           SKY/WX    TMP DP  RH WIND       PRES   REMARKS
MANITOWISH WTR CLOUDY    27  27 100 S8        30.06F FOG     WCI  19
ARBOR VITAE    CLOUDY    29  28  93 S7        30.08S FOG     WCI  22
WOODRUFF       CLOUDY    29  28  93 S7        30.08S FOG     WCI  22
RHINELANDER    CLOUDY    26  24  92 S6        30.10S FOG     WCI  19
EAGLE RIVER    LGT SNOW  27  26  98 CALM      30.09S
LAND O LAKES   LGT SNOW  28  27  96 S6        30.09F WCI  21
PHILLIPS       CLOUDY    28  26  95 S7        30.08S FOG     WCI  20
TOMAHAWK       CLOUDY    27  26  94 CALM      30.11S FOG
MEDFORD        CLOUDY    28  26  95 S9        30.09S FOG     WCI  19
MERRILL        CLOUDY    28  27  96 S3        30.12S FOG
$$

WIZ029-030-035-036-043>047-210900-
CENTRAL WISCONSIN

CITY           SKY/WX    TMP DP  RH WIND       PRES   REMARKS
WAUSAU         CLOUDY    28  26  92 S7        30.12S FOG     WCI  21
MOSINEE        CLOUDY    28  28 100 SE6       30.14S FOG     WCI  22
MARSHFIELD     CLOUDY    29  26  89 S8        30.12S FOG     WCI  21
STEVENS POINT  CLOUDY    27  26  93 SE5       30.16R FOG     WCI  22
WAUPACA        CLOUDY    31  28  90 SE3       30.18S FOG
WAUTOMA        CLOUDY    30  28  92 SE3       30.18S FOG
WISC RAPIDS    CLOUDY    29  25  85 S5        30.16S FOG     WCI  24
CAMP DOUGLAS   CLOUDY    30  30 100 SE5       30.15S WCI  25
$$

WIZ011>013-019>022-031-037>040-048>050-210900-
NORTHEAST WISCONSIN

CITY           SKY/WX    TMP DP  RH WIND       PRES   REMARKS
ANTIGO         CLOUDY    26  25  99 S7        30.13S FOG     WCI  18
SHAWANO        CLOUDY    31  27  86 CALM      30.19R FOG
OCONTO         CLOUDY    28  27  96 CALM      30.20R
STURGEON BAY   CLOUDY    28  25  86 CALM      30.22R
GREEN BAY      CLOUDY    30  27  88 S6        30.20S FOG     WCI  24
MANITOWOC      CLOUDY    31  28  89 S3        30.22R
APPLETON       CLOUDY    30  28  93 S6        30.19S FOG     WCI  24
CLINTONVILLE   CLOUDY    30  28  93 S5        30.18S FOG     WCI  25
OSHKOSH        CLOUDY    30  26  85 S8        30.19R FOG     WCI  22
$$

WIZ032>034-041-042-053>061-210900-
SOUTHWEST WISCONSIN

CITY           SKY/WX    TMP DP  RH WIND       PRES   REMARKS
LA CROSSE      CLOUDY    33  28  81 SE8       30.13R WCI  26
SPARTA         CLOUDY    31  28  88 SE6       30.14F FOG     WCI  25
VIROQUA        CLOUDY    29  29 100 SE8       30.11S WCI  21
BOSCOBEL       CLOUDY    33  29  85 VRB3      30.16S FOG
PRAIRIE DU CHI CLOUDY    32  30  93 E6        30.14S FOG     WCI  26
PLATTEVILLE    CLOUDY    32  31  96 CALM      30.16R
$$

WIZ056-057-062-063-064-067-068-210900-
SOUTH CENTRAL WISCONSIN

CITY           SKY/WX    TMP DP  RH WIND       PRES   REMARKS
REEDSBURG      CLOUDY    29  27  91 SE3       30.16R FOG
BARABOO/DELLS  CLOUDY    29  27  89 S6        30.16S FOG     WCI  23
LONE ROCK      CLOUDY    35  27  72 E6        30.17S HAZE    WCI  30
MINERAL POINT  CLOUDY    32  30  93 SE6       30.14S FOG     WCI  26
MADISON        CLOUDY    31  27  85 S8        30.18S FOG     WCI  23
MIDDLETON      CLOUDY    32  30  92 S5        30.18R WCI  27
WATERTOWN      CLOUDY    30  28  94 CALM      30.19S
MONROE         CLOUDY    32  30  93 S7        30.16S FOG     WCI  26
JANESVILLE     CLOUDY    32  30  93 S6        30.19R WCI  26
$$

WIZ051-052-058>065-066-070>072-210900-
SOUTHEAST WISCONSIN

CITY           SKY/WX    TMP DP  RH WIND       PRES   REMARKS
MILWAUKEE      CLOUDY    32  25  75 S3        30.22S
WAUKESHA       CLOUDY    30  27  86 S5        30.21S WCI  25
MILWAUKEE/TIMM CLOUDY    32  27  80 S5        30.23R WCI  27
RACINE         CLOUDY    32  25  75 S5        30.24R WCI  27
BURLINGTON     CLOUDY    29  26  88 S3        30.22R
KENOSHA        CLOUDY    32  26  78 S6        30.22S WCI  26
FOND DU LAC    CLOUDY    30  26  85 S6        30.20R WCI  24
SHEBOYGAN      CLOUDY    30  26  85 S5        30.21R WCI  25
WEST BEND      CLOUDY    30  27  86 CALM      30.20S
JUNEAU         CLOUDY    29  27  90 SE6       30.21R FOG     WCI  23
$$

LSZ147-162-210900-
LAKE SUPERIOR

STATION/POSITION TIME  TEMP    WIND        PRES    WAVE
                       AIR SEA DIR/SP/G            HT/PER
                 (UTC) (F)     (DEG/KT/KT) (MB)    (FT/S)
DEVILS ISLAND    0800   32     200/ 10/ 12 1019.2S
PORT WING        0700   32     200/  7/ 13 1018.3F
SAXON HARBOR     0700   33     200/  3/  8 1018.6F
$$

LMZ867-665-643>646-210900-
LAKE MICHIGAN

STATION/POSITION TIME  TEMP    WIND        PRES    WAVE
                       AIR SEA DIR/SP/G            HT/PER
                 (UTC) (F)     (DEG/KT/KT) (MB)    (FT/S)
CHAMBERS ISLAND  0700   28      CALM  /  1 1022.7F
NORTHPORT PIER   0700   30     200/  1/  2 1022.7S
SISTER BAY       0713             CALM       N/A
ALGOMA LAKESHORE 0714             CALM       N/A
KEWAUNEE LAKESHO 0700   30     220/  1/  4 1022.0F
SHEBOYGAN LAKESH 0800   31 34  200/  6/  7 1024.2R
PORT WASHINGTON  0700   32     210/  3/  5 1024.0S
MILWAUKEE LAKESH 0700   33     200/  7/  8   N/A
KENOSHA   LAKESH 0800   33     190/  5/  8 1023.7R
$$

TC  - TEMPERATURE IN CELSIUS
VSB - VISIBILITY IN STATUTE MILES
WCI - WIND CHILL INDEX
HX  - HEAT INDEX



USA.gov is the U.S. government's official web portal to all federal, state and local government web resources and services.